Portada
METAR-TAF:

METAR-TAF

Aeroports :

Thoothukudi, Índia

latitud: 8-43-27N, longitud: 78-01-33E, altitud: 39 m

Observació

L'informe es va fer fa 21 minuts, a les 07:00 UTC
Vent 5 kt del Oest/Nord-Oest
Temperatura 34°C
Humitat 53%
Pressió 1007 hPa
Visibilitat: 6000 m
Escasses núvols a una alçada de 2000 ft
Núvols disperses a una alçada de 10000 ft

METAR: VOTK 230700Z 29005KT 6000 FEW020 SCT100 34/23 Q1007 NOSIG

Hora: 12:51 (07:21 UTC)


TAF: manca

Observacions i pronòstics meteorològics de més de 4000 aeroports (METAR i TAF).

Les estacions disponibles són els punts grocs i vermells al mapa.

Posi el ratolí al punt desitjat per veure el nom de l'estació.

Feu clic per veure les observacions i els pronòstics meteorològics.

Per canviar el mapa: feu clic els botons verds amb una creu de color negre per apropar; al botó verd amb un guió per allunyar la imatge; o en les fletxes verdes per a mapes adjacents.


METAR-TAF: